FDX14 LOWW-EDDK

Flight info

Callsign FDX14
Flight time 1h 10m
Altitude 30000
Route BUWUT DCT DITIS DCT RAPET T843 VELIS DCT MASEK T841 ERNEP ERNEP1F
Aircraft B77L/H-SDE1E2E3FGHIJ2J3J4J5M1RWXY/LB1D1

Departure

Time 2026-04-22 18:06
Airport Vienna International Airport (LOWW)

Arrival

Time 2026-04-22 19:17
Airport Cologne Bonn Airport (EDDK)
Time Latitude Longitude Altitude Speed Heading
2026-04-22 16:43 48.12179 16.54839 583 ft 0 kts 26°
2026-04-22 17:46 48.12170 16.54832 583 ft 2 kts 26°
2026-04-22 17:46 48.12156 16.54822 583 ft 2 kts 26°
2026-04-22 17:46 48.12143 16.54812 583 ft 2 kts 26°
2026-04-22 17:47 48.12130 16.54803 583 ft 2 kts 14°
2026-04-22 17:47 48.12115 16.54802 584 ft 2 kts 350°
2026-04-22 17:47 48.12101 16.54808 584 ft 2 kts 330°
2026-04-22 17:47 48.12089 16.54822 584 ft 2 kts 310°
2026-04-22 17:48 48.12083 16.54834 584 ft 2 kts 296°
2026-04-22 17:48 48.12075 16.54861 584 ft 2 kts 295°
2026-04-22 17:48 48.12073 16.54871 585 ft 0 kts 296°
2026-04-22 17:50 48.12073 16.54870 584 ft 0 kts 296°
2026-04-22 17:50 48.12073 16.54869 584 ft 0 kts 296°
2026-04-22 17:50 48.12078 16.54853 584 ft 3 kts 296°
2026-04-22 17:51 48.12092 16.54811 584 ft 5 kts 296°
2026-04-22 17:51 48.12114 16.54743 584 ft 8 kts 296°
2026-04-22 17:51 48.12138 16.54652 583 ft 10 kts 270°
2026-04-22 17:51 48.12087 16.54609 583 ft 9 kts 145°
2026-04-22 17:52 48.12049 16.54694 585 ft 10 kts 116°
2026-04-22 17:52 48.12016 16.54796 586 ft 11 kts 116°
2026-04-22 17:52 48.11980 16.54907 586 ft 12 kts 116°
2026-04-22 17:52 48.11961 16.54964 587 ft 13 kts 116°
2026-04-22 17:53 48.11920 16.55090 588 ft 13 kts 116°
2026-04-22 17:53 48.11878 16.55217 589 ft 14 kts 116°
2026-04-22 17:53 48.11833 16.55355 589 ft 15 kts 116°
2026-04-22 17:53 48.11785 16.55505 589 ft 16 kts 116°
2026-04-22 17:54 48.11733 16.55666 589 ft 17 kts 116°
2026-04-22 17:54 48.11678 16.55836 589 ft 17 kts 116°
2026-04-22 17:54 48.11628 16.55988 592 ft 14 kts 116°
2026-04-22 17:54 48.11588 16.56108 595 ft 11 kts 116°
2026-04-22 17:55 48.11565 16.56179 596 ft 10 kts 116°
2026-04-22 17:55 48.11525 16.56302 598 ft 9 kts 116°
2026-04-22 17:55 48.11495 16.56394 601 ft 10 kts 116°
2026-04-22 17:55 48.11463 16.56494 605 ft 11 kts 116°
2026-04-22 17:56 48.11428 16.56604 608 ft 12 kts 116°
2026-04-22 17:56 48.11385 16.56735 609 ft 15 kts 116°
2026-04-22 17:56 48.11332 16.56898 610 ft 18 kts 116°
2026-04-22 17:56 48.11277 16.57068 611 ft 19 kts 116°
2026-04-22 17:57 48.11219 16.57244 610 ft 18 kts 116°
2026-04-22 17:57 48.11159 16.57429 607 ft 17 kts 116°
2026-04-22 17:57 48.11107 16.57589 605 ft 12 kts 116°
2026-04-22 17:57 48.11059 16.57645 605 ft 6 kts 181°
2026-04-22 17:58 48.11042 16.57640 605 ft 0 kts 197°
2026-04-22 18:04 48.11040 16.57639 605 ft 1 kts 197°
2026-04-22 18:04 48.11002 16.57614 606 ft 10 kts 206°
2026-04-22 18:04 48.10926 16.57546 607 ft 14 kts 239°
2026-04-22 18:05 48.10935 16.57472 607 ft 0 kts 296°
2026-04-22 18:05 48.10943 16.57446 608 ft 13 kts 296°
2026-04-22 18:06 48.11100 16.56970 610 ft 88 kts 296°
2026-04-22 18:06 48.11478 16.55815 594 ft 157 kts 298°
2026-04-22 18:06 48.12012 16.54233 1097 ft 173 kts 299°
2026-04-22 18:06 48.12231 16.52525 2035 ft 174 kts 272°
2026-04-22 18:07 48.12138 16.51346 2395 ft 178 kts 269°
2026-04-22 18:07 48.11845 16.48736 2854 ft 199 kts 266°
2026-04-22 18:07 48.11689 16.46652 3211 ft 209 kts 281°
2026-04-22 18:07 48.11887 16.44395 3436 ft 233 kts 285°
2026-04-22 18:08 48.12156 16.41939 3989 ft 244 kts 284°
2026-04-22 18:08 48.12419 16.39354 4559 ft 256 kts 284°
2026-04-22 18:08 48.12685 16.36736 5297 ft 260 kts 284°
2026-04-22 18:08 48.12963 16.34054 6067 ft 262 kts 283°
2026-04-22 18:09 48.13245 16.31357 6784 ft 266 kts 283°
2026-04-22 18:09 48.13531 16.28626 7508 ft 269 kts 283°
2026-04-22 18:09 48.13817 16.25882 8211 ft 272 kts 283°
2026-04-22 18:09 48.14117 16.23055 8874 ft 275 kts 286°
2026-04-22 18:10 48.14817 16.20474 9474 ft 270 kts 309°
2026-04-22 18:10 48.16068 16.18426 10132 ft 268 kts 320°
2026-04-22 18:10 48.17461 16.16529 10516 ft 280 kts 322°
2026-04-22 18:10 48.18973 16.14523 10809 ft 298 kts 322°
2026-04-22 18:11 48.20568 16.12408 11130 ft 314 kts 322°
2026-04-22 18:11 48.22228 16.10200 11506 ft 330 kts 322°
2026-04-22 18:11 48.23935 16.07921 12485 ft 326 kts 322°
2026-04-22 18:11 48.25589 16.05708 13615 ft 319 kts 322°
2026-04-22 18:12 48.27245 16.03498 14428 ft 323 kts 323°
2026-04-22 18:12 48.28942 16.01235 15200 ft 330 kts 323°
2026-04-22 18:12 48.30076 15.99720 15755 ft 333 kts 323°
2026-04-22 18:12 48.32395 15.96615 16880 ft 339 kts 323°
2026-04-22 18:13 48.34143 15.94273 17669 ft 344 kts 323°
2026-04-22 18:13 48.35949 15.91851 18444 ft 350 kts 323°
2026-04-22 18:13 48.37764 15.89414 19269 ft 353 kts 323°
2026-04-22 18:13 48.39581 15.86972 20002 ft 358 kts 323°
2026-04-22 18:14 48.41466 15.84438 20708 ft 364 kts 323°
2026-04-22 18:14 48.43350 15.81900 21420 ft 370 kts 323°
2026-04-22 18:14 48.45285 15.79292 22135 ft 374 kts 323°
2026-04-22 18:14 48.47212 15.76690 22833 ft 378 kts 324°
2026-04-22 18:15 48.49186 15.74024 23517 ft 383 kts 324°
2026-04-22 18:15 48.51157 15.71358 24189 ft 387 kts 324°
2026-04-22 18:15 48.53179 15.68620 24768 ft 392 kts 324°
2026-04-22 18:15 48.55193 15.65892 25316 ft 397 kts 324°
2026-04-22 18:16 48.57266 15.63079 25877 ft 402 kts 324°
2026-04-22 18:16 48.59338 15.60264 26379 ft 408 kts 324°
2026-04-22 18:16 48.61466 15.57369 26911 ft 412 kts 324°
2026-04-22 18:16 48.63645 15.54403 27386 ft 419 kts 325°
2026-04-22 18:17 48.65873 15.51366 27878 ft 425 kts 325°
2026-04-22 18:17 48.68079 15.48354 28460 ft 428 kts 325°
2026-04-22 18:17 48.70305 15.45311 28972 ft 433 kts 325°
2026-04-22 18:17 48.72612 15.42155 29472 ft 439 kts 325°
2026-04-22 18:18 48.74886 15.39037 30022 ft 442 kts 325°
2026-04-22 18:18 48.77252 15.35795 30239 ft 452 kts 326°
2026-04-22 18:18 48.79580 15.32520 30235 ft 457 kts 321°
2026-04-22 18:19 48.83555 15.24868 30246 ft 462 kts 312°
2026-04-22 18:19 48.87315 15.16915 30249 ft 464 kts 312°
2026-04-22 18:20 48.91072 15.08984 30252 ft 462 kts 313°
2026-04-22 18:20 48.94909 15.01154 30252 ft 465 kts 313°
2026-04-22 18:21 48.98769 14.93253 30262 ft 466 kts 313°
2026-04-22 18:21 49.02626 14.85321 30262 ft 465 kts 313°
2026-04-22 18:22 49.06452 14.77429 30269 ft 465 kts 313°
2026-04-22 18:22 49.10292 14.69482 30264 ft 464 kts 313°
2026-04-22 18:23 49.14134 14.61505 30273 ft 465 kts 313°
2026-04-22 18:23 49.17938 14.53583 30274 ft 465 kts 313°
2026-04-22 18:24 49.23646 14.41652 30274 ft 464 kts 313°
2026-04-22 18:25 49.29331 14.29714 30265 ft 465 kts 311°
2026-04-22 18:25 49.33123 14.21722 30264 ft 463 kts 311°
2026-04-22 18:26 49.38804 14.09703 30268 ft 463 kts 311°
2026-04-22 18:26 49.42578 14.01687 30271 ft 466 kts 311°
2026-04-22 18:27 49.46347 13.93662 30268 ft 465 kts 311°
2026-04-22 18:27 49.50125 13.85591 30271 ft 464 kts 311°
2026-04-22 18:28 49.53918 13.77461 30269 ft 463 kts 311°
2026-04-22 18:28 49.57648 13.69444 30274 ft 464 kts 311°
2026-04-22 18:29 49.61392 13.61371 30283 ft 464 kts 311°
2026-04-22 18:29 49.65147 13.53251 30286 ft 461 kts 311°
2026-04-22 18:30 49.70618 13.41370 30301 ft 449 kts 311°
2026-04-22 18:31 49.74256 13.33448 30294 ft 449 kts 310°
2026-04-22 18:31 49.77888 13.25514 30298 ft 452 kts 310°
2026-04-22 18:32 49.80893 13.18930 30287 ft 450 kts 310°
2026-04-22 18:32 49.85120 13.09639 30288 ft 452 kts 310°
2026-04-22 18:33 49.88730 13.01679 30283 ft 451 kts 310°
2026-04-22 18:33 49.92316 12.93748 30279 ft 451 kts 310°
2026-04-22 18:34 49.95930 12.85730 30284 ft 450 kts 310°
2026-04-22 18:34 49.99530 12.77721 30292 ft 451 kts 310°
2026-04-22 18:35 50.03094 12.69766 30284 ft 449 kts 309°
2026-04-22 18:35 50.06659 12.61787 30290 ft 449 kts 309°
2026-04-22 18:36 50.10207 12.53821 30294 ft 449 kts 309°
2026-04-22 18:36 50.13770 12.45796 30292 ft 448 kts 309°
2026-04-22 18:37 50.17272 12.37776 30287 ft 450 kts 305°
2026-04-22 18:37 50.19423 12.30327 30284 ft 457 kts 289°
2026-04-22 18:38 50.21321 12.19077 30288 ft 456 kts 287°
2026-04-22 18:38 50.22853 12.09512 30295 ft 457 kts 287°
2026-04-22 18:39 50.25125 11.95069 30304 ft 457 kts 286°
2026-04-22 18:39 50.26620 11.85502 30312 ft 457 kts 286°
2026-04-22 18:40 50.28119 11.75831 30305 ft 455 kts 286°
2026-04-22 18:40 50.29593 11.66249 30310 ft 455 kts 286°
2026-04-22 18:41 50.31059 11.56627 30305 ft 456 kts 286°
2026-04-22 18:41 50.32493 11.46997 30302 ft 455 kts 285°
2026-04-22 18:42 50.33906 11.37453 30305 ft 453 kts 286°
2026-04-22 18:42 50.35321 11.27842 30302 ft 455 kts 285°
2026-04-22 18:43 50.36730 11.18218 30308 ft 454 kts 285°
2026-04-22 18:43 50.38135 11.08578 30308 ft 453 kts 285°
2026-04-22 18:44 50.39527 10.98966 30309 ft 453 kts 285°
2026-04-22 18:44 50.41231 10.89504 30307 ft 448 kts 297°
2026-04-22 18:45 50.43922 10.80724 30314 ft 447 kts 299°
2026-04-22 18:45 50.46676 10.71951 30316 ft 447 kts 300°
2026-04-22 18:46 50.49428 10.63184 30316 ft 447 kts 300°
2026-04-22 18:46 50.52168 10.54427 30314 ft 446 kts 299°
2026-04-22 18:47 50.54905 10.45685 30103 ft 450 kts 300°
2026-04-22 18:47 50.56225 10.41157 30022 ft 465 kts 296°
2026-04-22 18:47 50.57496 10.36501 29762 ft 462 kts 296°
2026-04-22 18:48 50.58757 10.31852 29487 ft 455 kts 296°
2026-04-22 18:48 50.59985 10.27313 29217 ft 449 kts 295°
2026-04-22 18:48 50.61202 10.22806 28948 ft 447 kts 295°
2026-04-22 18:48 50.62408 10.18332 28680 ft 447 kts 295°
2026-04-22 18:49 50.63618 10.13835 28410 ft 445 kts 295°
2026-04-22 18:49 50.64814 10.09383 28143 ft 442 kts 295°
2026-04-22 18:49 50.66004 10.04942 27875 ft 439 kts 295°
2026-04-22 18:49 50.67178 10.00555 27610 ft 437 kts 295°
2026-04-22 18:50 50.68352 9.96160 27343 ft 435 kts 295°
2026-04-22 18:50 50.69520 9.91780 27076 ft 433 kts 295°
2026-04-22 18:50 50.70679 9.87423 26808 ft 430 kts 295°
2026-04-22 18:50 50.71821 9.83124 26545 ft 428 kts 295°
2026-04-22 18:51 50.72961 9.78824 26279 ft 426 kts 295°
2026-04-22 18:51 50.74096 9.74532 26015 ft 423 kts 296°
2026-04-22 18:51 50.75223 9.70266 25752 ft 421 kts 295°
2026-04-22 18:51 50.76343 9.66022 25483 ft 419 kts 295°
2026-04-22 18:52 50.77452 9.61813 25213 ft 417 kts 296°
2026-04-22 18:52 50.78573 9.57577 24943 ft 414 kts 296°
2026-04-22 18:52 50.79672 9.53426 24676 ft 412 kts 296°
2026-04-22 18:52 50.80765 9.49288 24412 ft 411 kts 296°
2026-04-22 18:53 50.81870 9.45094 24320 ft 407 kts 296°
2026-04-22 18:53 50.82946 9.41005 24290 ft 406 kts 296°
2026-04-22 18:53 50.84016 9.36929 24034 ft 401 kts 296°
2026-04-22 18:53 50.85093 9.32820 23438 ft 401 kts 295°
2026-04-22 18:54 50.86152 9.28775 22860 ft 401 kts 295°
2026-04-22 18:54 50.87206 9.24740 22365 ft 397 kts 295°
2026-04-22 18:54 50.88261 9.20689 21837 ft 393 kts 295°
2026-04-22 18:54 50.89288 9.16745 21256 ft 388 kts 295°
2026-04-22 18:55 50.90293 9.12875 20529 ft 383 kts 295°
2026-04-22 18:55 50.91303 9.08980 19789 ft 378 kts 295°
2026-04-22 18:55 50.92293 9.05157 19003 ft 375 kts 295°
2026-04-22 18:55 50.93273 9.01370 18225 ft 374 kts 295°
2026-04-22 18:56 50.94243 8.97610 17767 ft 368 kts 295°
2026-04-22 18:56 50.95203 8.93883 17272 ft 363 kts 295°
2026-04-22 18:56 50.96157 8.90215 16721 ft 359 kts 296°
2026-04-22 18:56 50.97108 8.86618 16135 ft 356 kts 296°
2026-04-22 18:57 50.98056 8.83026 15533 ft 353 kts 296°
2026-04-22 18:57 50.99003 8.79429 14938 ft 350 kts 296°
2026-04-22 18:57 50.99925 8.75915 14380 ft 346 kts 296°
2026-04-22 18:57 51.00829 8.72389 13797 ft 345 kts 292°
2026-04-22 18:58 51.01304 8.68689 13398 ft 346 kts 276°
2026-04-22 18:58 51.01169 8.64889 13335 ft 351 kts 265°
2026-04-22 18:58 51.00804 8.61069 13332 ft 351 kts 263°
2026-04-22 18:58 51.00400 8.57221 13330 ft 352 kts 263°
2026-04-22 18:59 50.99985 8.53395 13332 ft 350 kts 263°
2026-04-22 18:59 50.99573 8.49658 13068 ft 346 kts 263°
2026-04-22 18:59 50.99160 8.45936 12559 ft 347 kts 263°
2026-04-22 18:59 50.98736 8.42145 12114 ft 346 kts 263°
2026-04-22 19:00 50.98317 8.38404 11754 ft 343 kts 262°
2026-04-22 19:00 50.97900 8.34703 11363 ft 341 kts 262°
2026-04-22 19:00 50.97487 8.31049 10957 ft 339 kts 262°
2026-04-22 19:00 50.97288 8.27352 10545 ft 334 kts 276°
2026-04-22 19:01 50.97557 8.23773 10345 ft 323 kts 281°
2026-04-22 19:01 50.97885 8.20344 10326 ft 308 kts 281°
2026-04-22 19:01 50.98207 8.17055 10326 ft 298 kts 282°
2026-04-22 19:01 50.98528 8.13789 10321 ft 298 kts 282°
2026-04-22 19:02 50.98844 8.10560 10323 ft 298 kts 282°
2026-04-22 19:02 50.99159 8.07326 10325 ft 298 kts 282°
2026-04-22 19:02 50.99472 8.04088 10324 ft 298 kts 282°
2026-04-22 19:02 50.99784 8.00844 10326 ft 297 kts 281°
2026-04-22 19:03 51.00096 7.97606 10320 ft 296 kts 281°
2026-04-22 19:03 51.00405 7.94388 10322 ft 298 kts 281°
2026-04-22 19:03 51.00619 7.91099 10300 ft 299 kts 268°
2026-04-22 19:03 51.00183 7.87865 10323 ft 302 kts 255°
2026-04-22 19:04 50.99546 7.84686 10311 ft 302 kts 253°
2026-04-22 19:04 50.98898 7.81527 10312 ft 303 kts 253°
2026-04-22 19:04 50.98242 7.78347 10316 ft 303 kts 253°
2026-04-22 19:04 50.97590 7.75199 10321 ft 304 kts 253°
2026-04-22 19:05 50.96930 7.72018 10325 ft 304 kts 253°
2026-04-22 19:05 50.96271 7.68843 10326 ft 304 kts 253°
2026-04-22 19:05 50.95605 7.65639 10333 ft 304 kts 253°
2026-04-22 19:05 50.94949 7.62470 10326 ft 303 kts 253°
2026-04-22 19:06 50.94294 7.59299 10325 ft 303 kts 253°
2026-04-22 19:06 50.93905 7.56071 10299 ft 298 kts 275°
2026-04-22 19:06 50.94304 7.52873 10027 ft 292 kts 292°
2026-04-22 19:07 50.95972 7.47097 9323 ft 289 kts 303°
2026-04-22 19:07 50.96985 7.44329 8997 ft 288 kts 304°
2026-04-22 19:07 50.97978 7.41626 8693 ft 286 kts 304°
2026-04-22 19:07 50.98983 7.38900 8382 ft 285 kts 304°
2026-04-22 19:08 50.99965 7.36229 8309 ft 274 kts 304°
2026-04-22 19:08 51.00899 7.33681 8266 ft 261 kts 303°
2026-04-22 19:08 51.01791 7.31240 8156 ft 251 kts 303°
2026-04-22 19:08 51.02661 7.28855 7886 ft 249 kts 303°
2026-04-22 19:09 51.03531 7.26475 7565 ft 249 kts 303°
2026-04-22 19:09 51.04398 7.24117 7240 ft 249 kts 303°
2026-04-22 19:09 51.04978 7.22540 7033 ft 249 kts 303°
2026-04-22 19:09 51.06143 7.19374 6663 ft 247 kts 301°
2026-04-22 19:10 51.06622 7.16760 6292 ft 252 kts 273°
2026-04-22 19:10 51.06582 7.13993 6091 ft 247 kts 268°
2026-04-22 19:10 51.06490 7.11298 5754 ft 248 kts 268°
2026-04-22 19:10 51.06396 7.08584 5442 ft 247 kts 268°
2026-04-22 19:11 51.06304 7.05875 5137 ft 245 kts 268°
2026-04-22 19:11 51.06216 7.03162 4823 ft 244 kts 268°
2026-04-22 19:11 51.06016 7.00526 4479 ft 243 kts 250°
2026-04-22 19:11 51.05192 6.98272 4393 ft 228 kts 234°
2026-04-22 19:12 51.04306 6.96291 4358 ft 213 kts 232°
2026-04-22 19:12 51.03233 6.94842 4223 ft 196 kts 198°
2026-04-22 19:12 51.01932 6.94589 3889 ft 189 kts 175°
2026-04-22 19:12 51.00666 6.94933 3603 ft 182 kts 152°
2026-04-22 19:13 50.99636 6.96049 3374 ft 182 kts 137°
2026-04-22 19:13 50.98706 6.97416 3124 ft 180 kts 134°
2026-04-22 19:13 50.97790 6.98774 2884 ft 179 kts 135°
2026-04-22 19:13 50.96878 7.00104 2646 ft 179 kts 134°
2026-04-22 19:14 50.95962 7.01436 2407 ft 178 kts 134°
2026-04-22 19:14 50.95056 7.02755 2164 ft 177 kts 133°
2026-04-22 19:14 50.94143 7.04082 1920 ft 177 kts 133°
2026-04-22 19:14 50.93271 7.05345 1683 ft 164 kts 133°
2026-04-22 19:15 50.92722 7.06144 1541 ft 156 kts 133°
2026-04-22 19:15 50.91676 7.07663 1259 ft 152 kts 134°
2026-04-22 19:15 50.90897 7.08784 1009 ft 151 kts 133°
2026-04-22 19:15 50.90117 7.09892 800 ft 152 kts 134°
2026-04-22 19:16 50.89331 7.11019 592 ft 152 kts 134°
2026-04-22 19:16 50.88556 7.12166 430 ft 153 kts 134°
2026-04-22 19:16 50.87766 7.13315 257 ft 152 kts 134°
2026-04-22 19:16 50.87073 7.14323 265 ft 113 kts 139°
2026-04-22 19:17 50.86607 7.14995 281 ft 67 kts 137°
2026-04-22 19:17 50.86346 7.15285 287 ft 33 kts 163°
2026-04-22 19:17 50.86165 7.15353 291 ft 20 kts 169°
2026-04-22 19:17 50.86059 7.15277 290 ft 17 kts 237°
2026-04-22 19:18 50.86068 7.15106 288 ft 16 kts 309°
2026-04-22 19:18 50.86145 7.14991 288 ft 14 kts 318°
2026-04-22 19:18 50.86218 7.14885 287 ft 14 kts 317°
2026-04-22 19:18 50.86293 7.14776 284 ft 15 kts 317°
2026-04-22 19:19 50.86374 7.14658 280 ft 16 kts 317°
2026-04-22 19:19 50.86462 7.14530 276 ft 17 kts 317°
2026-04-22 19:19 50.86556 7.14394 271 ft 18 kts 318°
2026-04-22 19:19 50.86651 7.14257 267 ft 16 kts 317°
2026-04-22 19:20 50.86695 7.14192 265 ft 2 kts 317°
2026-04-22 19:22 50.86705 7.14179 265 ft 4 kts 317°
2026-04-22 19:22 50.86747 7.14139 264 ft 9 kts 340°
2026-04-22 19:22 50.86819 7.14077 263 ft 14 kts 320°
2026-04-22 19:23 50.86900 7.13958 260 ft 14 kts 317°
2026-04-22 19:23 50.86973 7.13854 259 ft 14 kts 318°
2026-04-22 19:23 50.87049 7.13746 256 ft 14 kts 317°
2026-04-22 19:23 50.87124 7.13634 254 ft 15 kts 316°
2026-04-22 19:24 50.87202 7.13520 252 ft 15 kts 317°
2026-04-22 19:24 50.87279 7.13408 252 ft 14 kts 317°
2026-04-22 19:24 50.87351 7.13304 252 ft 13 kts 317°
2026-04-22 19:24 50.87418 7.13207 252 ft 12 kts 317°
2026-04-22 19:25 50.87479 7.13118 252 ft 11 kts 317°
2026-04-22 19:25 50.87535 7.13037 252 ft 10 kts 317°
2026-04-22 19:25 50.87582 7.12969 253 ft 8 kts 317°
2026-04-22 19:25 50.87620 7.12913 254 ft 6 kts 317°
2026-04-22 19:26 50.87651 7.12869 255 ft 5 kts 317°
2026-04-22 19:26 50.87677 7.12829 255 ft 5 kts 306°
2026-04-22 19:26 50.87676 7.12781 255 ft 4 kts 240°
2026-04-22 19:26 50.87652 7.12732 255 ft 6 kts 228°
2026-04-22 19:27 50.87633 7.12700 254 ft 0 kts 227°